Regional Weather Roundup
Issued by NWS

Home | Current Version | Previous Version | Text Only | Print | Product List | Glossary Off
Versions: 1 2 3 4 5 6 7 8 9 10 11 12 13 14 15 16 17 18 19 20 21 22 23 24 25 26 27 28 29 30 31 32 33 34 35 36 37 38 39 40 41 42 43 44 45 46 47 48 49 50

000
ASUS43 KDMX 051008
RWRIA

WEATHER ROUNDUP FOR IOWA
NATIONAL WEATHER SERVICE DES MOINES IA
400 AM CST FRI FEB 05 2016

NOTE: "FAIR" INDICATES FEW OR NO CLOUDS BELOW 12,000 FEET WITH NO
SIGNIFICANT WEATHER AND/OR OBSTRUCTIONS TO VISIBILITY.

* - THESE STATIONS ARE NOT NWS STATIONS...THUS NOT UNDER NWS
QUALITY CONTROL.  THEY ALSO DO NOT REPORT WEATHER SUCH
AS PRECIPITATION OR FOG.

IAZ001>003-012>014-020>022-031>034-043>046-051100-
   NORTHWEST IOWA

CITY           SKY/WX    TMP DP  RH WIND       PRES   REMARKS
CARROLL *      CLEAR      7   5  92 CALM      30.33S
CHEROKEE *     CLOUDY     5   3  92 CALM      30.31S
DENISON *      CLEAR      7   5  92 CALM      30.31S
LE MARS *      CLEAR      9   9 100 CALM      30.30F
ORANGE CITY *  CLEAR     12  12 100 CALM      30.26F
SHELDON *      CLEAR     10  10 100 S6        30.26F WCI   1
SIOUX CITY     CLOUDY     8   4  83 E8        30.30F WCI  -4
SPENCER        CLOUDY     7   2  80 S5        30.29F WCI  -2
STORM LAKE *   CLEAR     12  12 100 SW8       30.29F WCI   1
$$

IAZ055>058-069>071-079>083-090>094-051100-
   SOUTHWEST IOWA

CITY           SKY/WX    TMP DP  RH WIND       PRES   REMARKS
ATLANTIC *     CLEAR      7   5  92 N3        30.35S FOG
AUDUBON *      CLOUDY     3   0  85 CALM      30.33S FOG
CLARINDA *     CLEAR     21  19  93 CALM      30.38S
COUNCIL BLFS * CLEAR     18  16  93 SE6       30.33F WCI   9
CRESTON *      CLEAR     16  14  93 CALM      30.35S
HARLAN  *      FOG        7   5  92 CALM      30.37S VSB 0
LAMONI         CLOUDY    20  16  84 N3        30.35F
RED OAK *      CLOUDY    18  18 100 CALM      30.36S
SHENANDOAH *   CLEAR     19  21 100 CALM      30.37S
$$

IAZ047>049-059>061-072>074-084-051100-
   CENTRAL IOWA

CITY           SKY/WX    TMP DP  RH WIND       PRES   REMARKS
AMES           CLOUDY    10   6  84 CALM      30.35F
ANKENY *       CLEAR     14  12  92 CALM      30.37S
BOONE *        CLEAR      9   5  85 SW3       30.33S
CHARITON *     MOCLDY    18  14  86 NW5       30.36S WCI  11
DES MOINES     CLOUDY    16  11  80 CALM      30.36F
GRINNELL*      PTCLDY    14  12  92 NW3       30.35S
KNOXVILLE *    CLEAR     16  12  86 NW5       30.35S WCI   9
MARSHALLTOWN   CLOUDY     8   6  92 W6        30.34S WCI  -2
NEWTON *       CLEAR     16  14  93 NW5       30.35F WCI   9
PELLA *        CLOUDY    18  14  86 CALM      30.38S
$$

IAZ004>006-015-016-023>025-035-036-051100-
   NORTH CENTRAL IOWA

CITY           SKY/WX    TMP DP  RH WIND       PRES   REMARKS
ALGONA *       CLEAR      9   7  92 SW3       30.30S
CLARION *      PTCLDY     3  -2  78 CALM      30.32F
ESTHERVILLE    CLOUDY     3   1  91 S8        30.29S WCI -10
FORT DODGE *   CLOUDY     3  -2  78 CALM      30.33S
MASON CITY     CLOUDY     2  -1  88 SW3       30.32F
FOREST CITY *  CLEAR      0  -4  85 CALM      30.30F
WEBSTER CITY * CLEAR      3   0  85 S6        30.31S WCI  -8
IOWA FALLS *     N/A      5   1  85 CALM      30.33F
$$

IAZ007>011-017>019-026>030-037>042-050>054-066-051100-
   NORTHEAST IOWA

CITY           SKY/WX    TMP DP  RH WIND       PRES   REMARKS
CEDAR RAPIDS   CLOUDY    15  13  91 NW7       30.33S WCI   5
CHARLES CITY * CLEAR      1   0  92 CALM      30.33R
CLINTON *      CLOUDY    26  21  81 NW13      30.32R WCI  15
DECORAH *      CLEAR     10   9  92 CALM      30.30S
DUBUQUE        CLOUDY    24  19  81 NW12      30.30R WCI  13
MONTICELLO *   CLOUDY    25  18  74 N7        30.32R WCI  17
OELWEIN *      CLEAR      9   7  92 NW8       30.33R WCI  -4
WATERLOO       PTCLDY     6   3  87 NW3       30.35R
$$

IAZ064-065-067-068-078-051100-
   EAST CENTRAL IOWA

CITY           SKY/WX    TMP DP  RH WIND       PRES   REMARKS
DAVENPORT      CLOUDY    26  19  74 NW12      30.33R WCI  16
IOWA CITY      CLEAR     20  15  81 NW7       30.36S WCI  11
MT. PLEASANT * CLEAR     25  21  86 NW5       30.36R WCI  19
MUSCATINE *    CLOUDY    25  19  80 NW10      30.36S WCI  15
QUAD CITIES    CLOUDY    27  18  69 NW10      30.33R WCI  17
$$

IAZ062-063-075>077-085>089-095>099-051100-
   SOUTHEAST IOWA

CITY           SKY/WX    TMP DP  RH WIND       PRES   REMARKS
BURLINGTON     PTCLDY    24  19  81 NW7       30.34S WCI  16
FAIRFIELD *    CLEAR     19  16  86 NW7       30.35F WCI  10
FORT MADISON * PTCLDY    21  19  93 NW7       30.36S WCI  13
KEOKUK *       CLEAR     25  21  86 NW5       30.36R WCI  19
OSKALOOSA *      N/A     19  16  86 NW7       30.36S WCI  10
CENTERVILLE *  CLEAR     19  16  86 CALM      30.37R
OTTUMWA        CLOUDY    18  14  84 NW8       30.35F WCI   8
WASHINGTON *   CLEAR     21  18  86 NW8       30.37R WCI  12
$$

ABBREVIATIONS USED IN REMARKS
   TC - TEMPERATURES IN CELSIUS
  WCI - WIND CHILL INDEX
   HX - HEAT INDEX
  VSB - VISIBILITY
$$




USA.gov is the U.S. government's official web portal to all federal, state and local government web resources and services.